Location: Karlovy Vary
(50.2167°N, 12.9000°E)
Time: 05:36:39
(UTC+02:00)

ISS - Visible Passes

Search period start: 23 September 2017 00:00
Search period end: 03 October 2017 00:00
Orbit: 401 x 407 km, 51.6° (Epoch: 23 September)

Date Brightness Start Highest point End Pass type
(mag) Time Alt. Az. Time Alt. Az. Time Alt. Az.
26 Sep -2.3 20:27:43 10° SSW 20:29:49 22° SSE 20:29:49 22° SSE visible
27 Sep -1.9 19:36:19 10° S 19:38:13 15° SE 19:39:58 11° ESE visible
27 Sep -2.1 21:10:58 10° WSW 21:12:38 27° SW 21:12:38 27° SW visible
28 Sep -3.3 20:18:47 10° SW 20:21:53 40° SSE 20:22:37 34° ESE visible
28 Sep -0.6 21:54:59 10° W 21:55:16 12° W 21:55:16 12° W visible
29 Sep -2.6 19:26:49 10° SSW 19:29:37 27° SE 19:32:26 10° E visible
29 Sep -3.1 21:02:34 10° WSW 21:05:07 51° WSW 21:05:07 51° WSW visible
30 Sep -3.9 20:10:11 10° WSW 20:13:26 69° SSE 20:14:51 31° E visible
30 Sep -0.9 21:46:42 10° W 21:47:30 16° W 21:47:30 16° W visible
01 Oct -3.4 19:17:55 10° SW 19:21:04 47° SSE 19:24:15 10° ENE visible
01 Oct -3.4 20:54:14 10° W 20:57:10 63° NW 20:57:10 63° NW visible
02 Oct -3.8 20:01:45 10° WSW 20:05:02 83° NNW 20:06:45 26° ENE visible
02 Oct -1.0 21:38:21 10° WNW 21:39:24 19° WNW 21:39:24 19° WNW visible
